Weather History for Syracuse, NY

Change the Weather History Date:

Thursday, November 29, 2012

  Actual Average Record
Temperature  
Mean Temperature 40 °F 36 °F  
Max Temperature 47 °F 43 °F 70 °F (2005)
Min Temperature 32 °F 29 °F 9 °F (1903)
Degree Days  
Heating Degree Days 25 29  
Month to date heating degree days 727 702  
Since 1 July heating degree days 1170 1319  
Cooling Degree Days 0 0  
Month to date cooling degree days 0 0  
Year to date cooling degree days 953 569  
Moisture  
Dew Point 26 °F    
Average Humidity 69    
Maximum Humidity 92    
Minimum Humidity 45    
Precipitation  
Precipitation T in 0.12 in 1.58 in (1987)
Month to date precipitation 1.40 3.41  
Year to date precipitation 27.53 35.13  
Snow  
Snow 0.30 in 0.50 in 4.40 in (2003)
Month to date snowfall 2.6 8.9  
Since 1 July snowfall 2.6 9.3  
Since 1 September snowfall 2.6 9.3  
Snow Depth T in    
Sea Level Pressure  
Sea Level Pressure 30.22 in    
Wind  
Wind Speed 13 mph (West)    
Max Wind Speed 24 mph    
Max Gust Speed 31 mph    
Visibility 9 miles    
Events Snow    
T = Trace of Precipitation, MM = Missing Value Source: NWS Daily Summary

Daily Weather History Graph

Daily Weather History Graph

Search for Another Location

Airport:

Trip Planner

Search our weather history database for the weather conditions in past years. The results will help you decide how hot, cold, wet, or windy it might be!

Date:

Astronomy

Nov. 29, 2012 Rise Set
Actual Time 7:14 AM EST 4:31 PM EST
Civil Twilight 6:42 AM EST 5:02 PM EST
Nautical Twilight 6:07 AM EST 5:38 PM EST
Astronomical Twilight 5:33 AM EST 6:12 PM EST
Moon 5:31 PM EST (11/29) 7:59 AM EST (11/29)
Length of Visible Light 10h 19m
Length of Day
9h 16m
Full, 99% of the Moon is Illuminated
Nov 29
Full
Dec 6
Last Quarter
Dec 13
New
Dec 20
First Quarter
Dec 28
Full

Hourly Weather History & Observations

Time (EST) Temp. Windchill Dew Point Humidity Pressure Visibility Wind Dir Wind Speed Gust Speed Precip Events Conditions
12:00 AM 32.0 °F 24.8 °F 28.4 °F 87% 30.22 in 3.0 mi WNW 8.1 mph - 0.00 in Snow Light Snow
12:04 AM 32.0 °F 25.6 °F 28.4 °F 87% 30.22 in 4.0 mi WNW 6.9 mph - 0.00 in Snow Light Snow
12:23 AM 32.0 °F 25.6 °F 28.4 °F 87% 30.22 in 1.8 mi WNW 6.9 mph - 0.00 in Snow Light Snow
12:41 AM 32.0 °F 24.8 °F 28.4 °F 87% 30.22 in 2.0 mi WNW 8.1 mph - 0.00 in Snow Light Snow
12:54 AM 32.0 °F 25.6 °F 30.0 °F 92% 30.23 in 7.0 mi West 6.9 mph - 0.00 in Snow Light Snow
1:54 AM 32.0 °F 24.2 °F 28.0 °F 85% 30.23 in 8.0 mi WSW 9.2 mph - 0.00 in Snow Light Snow
2:54 AM 34.0 °F 28.0 °F 24.1 °F 67% 30.23 in 10.0 mi WSW 6.9 mph - 0.00 in   Overcast
3:54 AM 33.1 °F 26.1 °F 23.0 °F 66% 30.22 in 10.0 mi WSW 8.1 mph - N/A   Overcast
4:54 AM 34.0 °F 25.0 °F 21.9 °F 61% 30.22 in 10.0 mi WSW 12.7 mph - N/A   Overcast
5:54 AM 33.1 °F 22.2 °F 21.0 °F 61% 30.23 in 10.0 mi WSW 17.3 mph 23.0 mph N/A   Scattered Clouds
6:54 AM 33.1 °F 24.4 °F 21.0 °F 61% 30.24 in 10.0 mi WSW 11.5 mph - N/A   Scattered Clouds
7:54 AM 33.1 °F 24.9 °F 21.9 °F 64% 30.24 in 10.0 mi WSW 10.4 mph - N/A   Scattered Clouds
8:54 AM 36.0 °F 25.3 °F 25.0 °F 64% 30.24 in 10.0 mi WSW 19.6 mph 23.0 mph N/A   Scattered Clouds
9:54 AM 39.0 °F 28.5 °F 25.0 °F 57% 30.24 in 10.0 mi WSW 23.0 mph 27.6 mph N/A   Scattered Clouds
10:54 AM 41.0 °F 32.2 °F 25.0 °F 53% 30.23 in 10.0 mi WSW 18.4 mph 25.3 mph N/A   Scattered Clouds
11:54 AM 45.0 °F 37.6 °F 28.0 °F 52% 30.20 in 10.0 mi West 17.3 mph 28.8 mph N/A   Mostly Cloudy
12:54 PM 45.0 °F 37.1 °F 27.0 °F 49% 30.19 in 10.0 mi West 19.6 mph - N/A   Scattered Clouds
1:54 PM 46.9 °F - 28.0 °F 48% 30.17 in 10.0 mi West 17.3 mph 28.8 mph N/A   Mostly Cloudy
2:54 PM 46.9 °F - 28.0 °F 48% 30.17 in 10.0 mi WSW 18.4 mph 28.8 mph N/A   Overcast
3:54 PM 46.0 °F 37.8 °F 26.1 °F 46% 30.17 in 10.0 mi WSW 23.0 mph 28.8 mph N/A   Overcast
4:54 PM 42.1 °F 38.4 °F 30.0 °F 62% 30.18 in 10.0 mi WNW 5.8 mph - N/A   Mostly Cloudy
5:54 PM 41.0 °F 37.1 °F 30.0 °F 65% 30.19 in 10.0 mi West 5.8 mph - N/A   Mostly Cloudy
6:54 PM 42.1 °F 35.7 °F 25.0 °F 51% 30.20 in 10.0 mi WSW 11.5 mph - N/A   Mostly Cloudy
7:54 PM 42.1 °F 35.2 °F 24.1 °F 49% 30.21 in 10.0 mi WSW 12.7 mph - N/A   Overcast
8:54 PM 42.1 °F 34.9 °F 23.0 °F 47% 30.21 in 10.0 mi WSW 13.8 mph - N/A   Overcast
9:54 PM 42.1 °F 34.2 °F 26.1 °F 53% 30.22 in 10.0 mi West 16.1 mph - N/A   Overcast
10:54 PM 37.0 °F 31.0 °F 30.0 °F 76% 30.25 in 10.0 mi NNW 8.1 mph - N/A   Overcast
11:48 PM 35.6 °F 28.6 °F 28.4 °F 75% 30.27 in 10.0 mi NNW 9.2 mph - N/A   Overcast
11:54 PM 35.1 °F 27.9 °F 28.9 °F 78% 30.28 in 10.0 mi NW 9.2 mph - N/A   Overcast